Location: Treviso
(45.6669°N, 12.2430°E)
Time: 06:01:58
(UTC+01:00)

ISS - Pass Details

Date: 14 November 2018
Orbit: 402 x 408 km, 51.6° (Epoch: 17 November)

Event Time Altitude Azimuth Distance (km) Brightness Sun altitude
Exits shadow 05:44:59 21° 233° (SW) 978 -2.3 -14.7°
Maximum altitude 05:45:22 21° 223° (SW) 964 -2.2 -14.6°
Drops below altitude 10° 05:47:55 10° 171° (S) 1,456 -0.8 -14.2°
Sets 05:50:18 0° 155° (SSE) 2,313 0.6 -13.8°
